{"data":{"norad_id":68371,"intl_designator":"2026-061M","name":"RASSVET-3 12","alt_names":[],"object_type":"PAYLOAD","status":"ACTIVE","operator":null,"country":"CIS","launch_date":"2026-03-23","launch_site_code":"PLMSC","launch_vehicle":null,"mission":null,"orbit_class":"UNKNOWN","rcs_meters":null,"size_class":null,"mass_kg":null,"dimensions":null,"purposes":[],"wikipedia_slug":null,"has_3d_model":false,"image_url":null,"decayed_at":null,"tle_current":{"epoch":"2026-09-19T18:36:36.549792Z","epoch_age_seconds":134862,"freshness":"FRESH","line1":"1 68371U 26061M   26262.77542303  .00002244  00000+0  10756-3 0  9992","line2":"2 68371  82.2917 278.2500 0002942  77.0610 283.0952 15.18445668 27767","mean_motion":15.18445668,"eccentricity":0.0002942,"inclination_deg":82.2917,"raan_deg":278.25,"arg_perigee_deg":77.061,"mean_anomaly_deg":283.0952,"bstar":0.00010756,"rev_number":2776,"period_min":94.833817919654,"perigee_km":508.51094508143,"apogee_km":512.56424121203,"semimajor_km":6888.6745931467,"source":"CELESTRAK","updated_at":"2026-09-20T09:00:24.164694Z"}}}